Hourly Data Report for May 22, 2020

TORONTO CITY
ONTARIO
Current Station Operator: ECCC - MSC

43°40'00.000" N
79°24'00.000" W
112.50 m
6158355
71508
XTO

Download Data

Hourly Data (May 2020)
Hourly Data Report for May 22, 2020
TIME
LST
Temp Definition
°C
Dew Point Definition
°C
Rel Hum Definition
%
Precip. Amount Definition
mm

Wind Dir Definition
10's deg

Wind Spd Definition
km/h
Visibility Definition
km
Stn Press Definition
kPa
Hmdx Definition


Wind Chill Definition


Weather Definition


00:00 12.0 -0.6 42 0.0       100.75     LegendNANA
01:00 11.7 -0.9 42 0.0       100.73     LegendNANA
02:00 11.5 -0.8 43 0.0       100.69     LegendNANA
03:00 11.3 -1.5 41 0.0       100.68     LegendNANA
04:00 11.3 -1.3 41 0.0       100.63     LegendNANA
05:00 10.9 -1.0 44 0.0       100.63     LegendNANA
06:00 12.2 -1.4 39 0.0       100.61     LegendNANA
07:00 16.1 -0.3 33 0.0       100.63     LegendNANA
08:00 18.9 2.8 34 0.0       100.64     LegendNANA
09:00 21.0 5.8 37 0.0       100.63     LegendNANA
10:00 20.7 1.6 28 0.0       100.57     LegendNANA
11:00 21.8 5.4 34 0.3       100.50     LegendNANA
12:00 20.4 1.0 27 0.3       100.47     LegendNANA
13:00 21.3 8.1 43 0.0       100.44     LegendNANA
14:00 22.0 7.1 38 0.0       100.38     LegendNANA
15:00 22.8 5.9 33 0.2       100.30     LegendNANA
16:00 23.0 5.5 32 0.0       100.26     LegendNANA
17:00 22.2 5.5 34 0.0       100.24     LegendNANA
18:00 21.7 5.4 35 0.0       100.22     LegendNANA
19:00 18.9 7.3 47 0.0       100.21     LegendNANA
20:00 17.6 7.8 53 0.0       100.23     LegendNANA
21:00 17.1 9.2 60 0.0       100.24     LegendNANA
22:00 17.5 9.2 58 0.0       100.24     LegendNANA
23:00 16.4 8.7 60 0.0       100.23     LegendNANA

Notes on Data Quality.

Legend

  • E = Estimated
  • M = Missing
  • NA = Not Available*
  • [empty] = Indicates an unobserved value
Date modified: